| time (UTC) | temp F | wind direction | speed MPH | gust MPH | rain 1hr in | rain 24hr in | rain mn in | humidity % | barometer mb |
| 20260504081549 | 40 | 159 | 0.0 | 0.0 | 0.00 | 0.00 | 0.00 | 60 | 1010.5 |
| 20260504050012 | 44 | 134 | 0.0 | 1.0 | 0.00 | 0.00 | 0.00 | 47 | 1011.2 |
| 20260504044604 | 44 | 148 | 0.0 | 0.0 | 0.00 | 0.00 | 0.00 | 47 | 1011.3 |
| 20260504043047 | 42 | 150 | 0.0 | 0.0 | 0.00 | 0.00 | 0.00 | 50 | 1011.3 |
| 20260504041532 | 41 | 121 | 0.0 | 0.0 | 0.00 | 0.00 | 0.00 | 53 | 1011.1 |
| 20260504040022 | 41 | 122 | 0.0 | 0.0 | 0.00 | 0.00 | 0.00 | 51 | 1011.0 |
| 20260504034503 | 41 | 159 | 0.0 | 0.0 | 0.00 | 0.00 | 0.00 | 51 | 1010.9 |
| 20260504033052 | 41 | 138 | 0.0 | 0.0 | 0.00 | 0.00 | 0.00 | 51 | 1010.8 |
| 20260504031546 | 41 | 136 | 0.0 | 0.0 | 0.00 | 0.00 | 0.00 | 50 | 1010.7 |
| 20260504030041 | 42 | 275 | 0.0 | 0.0 | 0.00 | 0.00 | 0.00 | 45 | 1010.6 |
| 20260504024527 | 44 | 268 | 0.0 | 0.0 | 0.00 | 0.00 | 0.00 | 45 | 1010.6 |
| 20260504023008 | 43 | 123 | 0.0 | 0.0 | 0.00 | 0.00 | 0.00 | 42 | 1010.8 |
| 20260504021557 | 42 | 127 | 0.0 | 0.0 | 0.00 | 0.00 | 0.00 | 47 | 1010.8 |
| 20260504020043 | 42 | 96 | 0.0 | 0.0 | 0.00 | 0.00 | 0.00 | 47 | 1010.9 |
| 20260504014528 | 45 | 139 | 0.0 | 0.0 | 0.00 | 0.00 | 0.00 | 40 | 1010.7 |
| 20260504013029 | 46 | 58 | 0.0 | 0.0 | 0.00 | 0.00 | 0.00 | 35 | 1010.6 |
| 20260504011516 | 45 | 189 | 0.0 | 1.0 | 0.00 | 0.00 | 0.00 | 37 | 1010.4 |
| 20260504010005 | 44 | 110 | 0.0 | 0.0 | 0.00 | 0.00 | 0.00 | 37 | 1010.2 |
| 20260504004526 | 45 | 119 | 0.0 | 0.0 | 0.00 | 0.00 | 0.00 | 35 | 1009.9 |
| 20260504003007 | 46 | 162 | 0.0 | 0.0 | 0.00 | 0.00 | 0.00 | 34 | 1009.7 |
| 20260504001611 | 47 | 139 | 0.0 | 2.0 | 0.00 | 0.00 | 0.00 | 33 | 1009.4 |
| 20260504000049 | 47 | 146 | 0.0 | 1.0 | 0.00 | 0.00 | 0.00 | 28 | 1009.2 |
| 20260503234545 | 47 | 255 | 0.0 | 0.0 | 0.00 | 0.00 | 0.00 | 28 | 1009.0 |
| 20260503233052 | 49 | 118 | 0.0 | 0.0 | 0.00 | 0.00 | 0.00 | 25 | 1008.9 |
| 20260503231543 | 49 | 267 | 0.0 | 7.0 | 0.00 | 0.00 | 0.00 | 24 | 1008.9 |
| 20260503230042 | 51 | 125 | 0.0 | 3.0 | 0.00 | 0.00 | 0.00 | 24 | 1008.8 |
| 20260503224531 | 51 | 155 | 0.0 | 1.0 | 0.00 | 0.00 | 0.00 | 26 | 1008.7 |
| 20260503223015 | 51 | 336 | 0.0 | 2.0 | 0.00 | 0.00 | 0.00 | 26 | 1008.9 |
| 20260503221504 | 51 | 77 | 0.0 | 11.0 | 0.00 | 0.00 | 0.00 | 26 | 1008.8 |
| 20260503220053 | 52 | 301 | 0.0 | 3.0 | 0.00 | 0.00 | 0.00 | 27 | 1008.8 |
| 20260503214543 | 50 | 135 | 0.0 | 8.0 | 0.00 | 0.00 | 0.00 | 31 | 1008.9 |
| 20260503213026 | 50 | 288 | 0.0 | 8.0 | 0.00 | 0.00 | 0.00 | 29 | 1008.9 |
| 20260503211516 | 51 | 12 | 0.0 | 8.0 | 0.00 | 0.00 | 0.00 | 30 | 1008.9 |
| 20260503210001 | 50 | 184 | 0.0 | 6.0 | 0.00 | 0.00 | 0.00 | 29 | 1009.0 |
| 20260503204554 | 50 | 37 | 0.0 | 0.0 | 0.00 | 0.00 | 0.00 | 29 | 1008.8 |
| 20260503203051 | 48 | 349 | 0.0 | 9.0 | 0.00 | 0.00 | 0.00 | 31 | 1009.0 |
| 20260503201529 | 48 | 88 | 0.0 | 9.0 | 0.00 | 0.00 | 0.00 | 32 | 1009.1 |
| 20260503200013 | 48 | 329 | 0.0 | 8.0 | 0.00 | 0.00 | 0.00 | 32 | 1009.1 |
| 20260503194503 | 48 | 122 | 1.0 | 18.0 | 0.00 | 0.00 | 0.00 | 31 | 1009.2 |
| 20260503193049 | 48 | 300 | 0.0 | 9.0 | 0.00 | 0.00 | 0.00 | 31 | 1009.4 |
| 20260503191532 | 48 | 261 | 0.0 | 16.0 | 0.00 | 0.00 | 0.00 | 31 | 1009.5 |
| 20260503190017 | 47 | 202 | 1.0 | 11.0 | 0.00 | 0.00 | 0.00 | 32 | 1009.5 |
| 20260503184610 | 47 | 13 | 0.0 | 11.0 | 0.00 | 0.00 | 0.00 | 34 | 1009.4 |
| 20260503184501 | 47 | 70 | 0.0 | 11.0 | 0.00 | 0.00 | 0.00 | 33 | 1009.3 |
| 20260503183108 | 47 | 329 | 1.0 | 7.0 | 0.00 | 0.00 | 0.00 | 32 | 1009.4 |
| 20260503181558 | 47 | 354 | 0.0 | 2.0 | 0.00 | 0.00 | 0.00 | 32 | 1009.5 |
| 20260503180057 | 47 | 140 | 0.0 | 8.0 | 0.00 | 0.00 | 0.00 | 31 | 1009.4 |
| 20260503174543 | 47 | 253 | 0.0 | 8.0 | 0.00 | 0.00 | 0.00 | 33 | 1009.3 |
| 20260503173027 | 46 | 313 | 0.0 | 0.0 | 0.00 | 0.00 | 0.00 | 34 | 1009.3 |
| 20260503171512 | 46 | 66 | 0.0 | 0.0 | 0.00 | 0.00 | 0.00 | 38 | 1009.3 |